This is the latest recevied weather packets stored in our database for station/object K9ZOG. If no packets are shown the sender has not sent any weather packets the latest 10 day(s).
| Time | Temp. | Humidity | Pressure | Rain* | Wind** | Luminosity | Snow |
|---|---|---|---|---|---|---|---|
| 1777856352 | 12.78° C | 66% | 1005.8 hPa | 0 mm | - | 1 W/m² | - |
| 1777856052 | 12.78° C | 66% | 1005.8 hPa | 0 mm | - | 2 W/m² | - |
| 1777855754 | 12.78° C | 65% | 1005.9 hPa | 0 mm | - | 2 W/m² | - |
| 1777855453 | 13.33° C | 65% | 1005.9 hPa | 0 mm | - | 5 W/m² | - |
| 1777855153 | 13.33° C | 65% | 1006 hPa | 0 mm | - | 7 W/m² | - |
| 1777854852 | 13.33° C | 64% | 1006.1 hPa | 0 mm | - | 11 W/m² | - |
| 1777854553 | 13.33° C | 63% | 1006 hPa | 0 mm | - | 14 W/m² | - |
| 1777854253 | 13.33° C | 63% | 1006.2 hPa | 0 mm | - | 19 W/m² | - |
| 1777853952 | 13.89° C | 62% | 1006.2 hPa | 0 mm | - | 23 W/m² | - |
| 1777853652 | 13.89° C | 62% | 1006.1 hPa | 0 mm | - | 26 W/m² | - |
| 1777853360 | 13.89° C | 61% | 1006.2 hPa | 0 mm | - | 31 W/m² | - |
| 1777853052 | 13.89° C | 60% | 1006.2 hPa | 0 mm | - | 35 W/m² | - |
| 1777852752 | 14.44° C | 60% | 1006.3 hPa | 0 mm | - | 40 W/m² | - |
| 1777852453 | 14.44° C | 59% | 1006.4 hPa | 0 mm | - | 45 W/m² | - |
| 1777852153 | 14.44° C | 58% | 1006.3 hPa | 0 mm | - | 49 W/m² | - |
| 1777851852 | 14.44° C | 58% | 1006.3 hPa | 0 mm | - | 53 W/m² | - |
| 1777851553 | 14.44° C | 58% | 1006.4 hPa | 0 mm | - | 61 W/m² | - |
| 1777851253 | 15° C | 57% | 1006.6 hPa | 0 mm | - | 64 W/m² | - |
| 1777850952 | 15° C | 56% | 1006.7 hPa | 0 mm | - | 66 W/m² | - |
| 1777850653 | 15° C | 56% | 1006.8 hPa | 0 mm | - | 123 W/m² | - |
| 1777850352 | 15° C | 56% | 1006.7 hPa | 0 mm | - | 133 W/m² | - |
| 1777850052 | 15° C | 57% | 1006.9 hPa | 0 mm | - | 154 W/m² | - |
| 1777849752 | 14.44° C | 58% | 1007 hPa | 0 mm | - | 165 W/m² | - |
| 1777849452 | 14.44° C | 57% | 1007 hPa | 0 mm | - | 176 W/m² | - |
| 1777849152 | 14.44° C | 59% | 1007.1 hPa | 0 mm | - | 188 W/m² | - |
* Rain latest hour (hover to see other rain measurements)
** Current wind speed in m/s (hover to see current wind gust speed)